星链-30907 (STARLINK-30907 )

导读

STARLINK-30907是美国太空探索技术公司星链互联网卫星星座中的一员,于2023年11月18日发射升空,属于星链项目批量发射的低轨卫星。它运行在近地轨道,为全球提供高速低延迟互联网服务,服务范围覆盖偏远地区与网络基础设施薄弱区域,支撑星链星座全球互联的组网目标。

基本信息
目录编号:
58352
目录名称:
STARLINK-30907
国际标识:
2023-177B
轨道中心:
EARTH
卫星名称:
星链-30907
卫星全名:
星链-30907 (STARLINK-30907 )
卫星状态:
在轨 (已飞行1021 天)
发射日期:
2023-11-18 UTC
国别 :
美国 (US)
星等 :
--
轨道信息
数据来源 国际轨道数据
星历时间: 2026-09-04T05:21:39+0800
14小时前
查看轨道信息
半长轴: 6861.201km
偏心率: 0.0001599
轨道倾角: 43.005°
近地点辐角 266.405°
升交点赤经 63.978°
平近点角 93.662°
近地点: 481.966km
远地点: 484.162km
周期: 94.267分钟
每日圈数: 15.275751
详细信息
固有亮度:
5
最大亮度:
0.3
卫星平台:
Starlink v2.0 mini
覆盖范围:
全球
运营商:
太空探索技术公司
运营商所在国:
美国
制造商(研发单位):
太空探索技术公司
制造商所在国:
美国
使用方式:
暂无
卫星简介
星链(Starlink)计划是由太空探索技术公司(SpaceX)提出的一个巨型低轨卫星互联网星座项目,计划在2019年至2024年间在太空搭建由约1.2万颗卫星组成的“星链”网络,其中1584颗将部署在地球上空550千米处的近地轨道,并从2020年开始工作。该卫星仍在工作。
2D轨道图
3D轨道图
轨道高度分析图
轨道倾角分析图
轨道综合分析图
查看轨道综合分析图